Aérodrome :
LOGIN :

S'inscrire | Disclaimer

   EN    FR    IT 

 










Légende :    VFR   VFR Marginal   IFR   IFR Intensif   IFR Très Intensif
Visi : 
Plafond : 
>= 8 km
>= 3000ft
5 à 8 km
1000 à 3000 ft
1500m à 5 km
500 à 1000 ft
800 à 1500m
200 à 500 ft
< 800m
< 200 ft
Symboles :   Orages  Brouillard  Fortes neiges  Fortes précipitations  Vent > 20 kt
SIGMETs :   Divers  Orages  Givrage  Turbulence  Onde Orograph.  Cendres Volcan.







- Altitude de l'aérodrome : 1247 ft
- Code IATA : PRG


LKPR - Praha Ruzyne

DERNIER METAR :
  • 212330Z 01004KT CAVOK 08/00 Q1017 NOSIG

METARs EXPIRÉS :
  • 212300Z 03004KT CAVOK 10/00 Q1017 NOSIG
  • 212230Z 04005KT CAVOK 11/01 Q1018 NOSIG
  • 212200Z 01002KT CAVOK 09/M00 Q1018 NOSIG
  • 212130Z 35005KT CAVOK 09/00 Q1018 NOSIG
  • 212100Z 00000KT CAVOK 14/M00 Q1018 NOSIG

TAF TAF LKPR
Valide du 22 à 00h jusqu'au 23 à 06h UTC


212300Z 2200/2306 06004KT CAVOK
BECMG 2208/2210 08012KT
TEMPO 2210/2306 09014G30KT
BECMG 2304/2306 9999 BKN040
Pas de NOTAMs connus pour ce terrain.



MET'MAP, la Météo Aéronautique d'un coup d'oeil ! - Copyright ORBIFLY Décembre 2007 - Disclaimer

ORBIFLY MET'MAP TEAM :

Programmation & Développement : Alexandra Zaïnal
Conception & Développement : Baudouin d'Aumeries
Co-Programmation & Développement : Marc-Olivier Méhu
Soutien technique & logistique : Manuel Goepfert

Contact : metmap@orbifly.com




SOURCES & CREDITS :

   NOAA